[[{"header":{"parameterUnit":"m.s-1","parameterCategory":1,"la1":30.2991,"la2":30.254,"lo1":-89.0895,"lo2":-89.0444,"dy":0.0017,"dx":0.0017,"nx":28,"ny":28,"refTime":"2025-12-14T09:00:00:Z","depth":0,"parameterNumber":2,"parameterNumberName":"U-component_of_WINDS"},"data":[0,0,0,0,0,0,0,0,0,0,0,0,0,0,0,0,0,0,0,0,0,0,0,0,0,0,0,0,0,0,0,0,0,0,0,0,0,0,0,0,0,0,0,0,0,0,0,0,0,0,0,0,0,0,0,0,0,0,-1.3702,-1.3702,0,-1.3735,-1.3735,-1.3735,-1.371,-1.3709,-1.3708,-1.3707,-1.3741,-1.3743,-1.3745,0,0,0,0,0,0,0,0,0,0,0,0,0,-1.3617,-1.3619,-1.3702,-1.3702,-1.3703,-1.3735,-1.3735,-1.3736,-1.371,-1.3709,-1.3708,-1.3706,-1.3741,-1.3743,-1.3745,0,0,0,0,0,0,0,0,0,0,0,0,0,-1.3653,-1.362,-1.3702,-1.3694,-1.3694,-1.3735,-1.3735,-1.3736,-1.3711,-1.3709,-1.3707,-1.3706,-1.374,-1.3743,-1.3746,-1.3796,0,0,-1.3754,-1.3756,0,0,0,0,0,0,0,0,-1.3651,-1.3656,-1.3695,-1.3695,-1.3694,-1.3717,-1.3718,-1.3756,-1.3711,-1.3704,-1.3707,-1.3705,-1.3734,-1.3738,-1.3748,-1.3798,-1.3799,-1.3755,-1.3757,-1.3758,-1.3759,0,0,0,0,0,0,0,-1.3648,-1.3654,-1.3715,-1.3695,-1.3695,-1.3689,-1.3692,-1.3725,-1.3728,-1.3705,-1.3703,-1.3707,-1.3734,-1.3745,-1.3748,-1.38,-1.3755,-1.3757,-1.3759,-1.376,-1.3893,-1.3894,0,0,0,0,0,0,-1.3647,-1.3652,-1.3714,-1.3716,-1.3668,-1.3692,-1.3695,-1.3711,-1.3728,-1.3729,-1.3708,-1.3706,-1.3741,-1.3745,-1.3749,-1.381,-1.3758,-1.376,-1.3762,-1.3891,-1.3893,-1.3895,0,0,0,0,0,0,-1.3645,-1.3652,-1.3713,-1.3684,-1.3691,-1.3695,-1.3713,-1.3713,-1.3723,-1.3731,-1.3731,-1.3719,-1.3739,-1.3745,-1.3785,-1.381,-1.3762,-1.3764,-1.3889,-1.3892,-1.3894,-1.3931,0,0,0,0,0,0,-1.3643,-1.3652,-1.3671,-1.3684,-1.3692,-1.3748,-1.3715,-1.3714,-1.3728,-1.3725,-1.374,-1.3741,-1.3739,-1.378,-1.3787,-1.3814,-1.3767,-1.3887,-1.389,-1.3893,-1.3927,-1.3934,-1.3941,0,0,0,0,0,-1.364,-1.3681,-1.3673,-1.368,-1.3717,-1.3749,-1.3754,-1.375,-1.373,-1.375,-1.3754,-1.3741,-1.3806,-1.3785,-1.3792,-1.382,-1.3885,-1.3889,-1.3893,-1.3925,-1.3933,-1.394,0,0,0,0,0,0,-1.3672,-1.3682,-1.3673,-1.372,-1.3734,-1.3745,-1.377,-1.3759,-1.3779,-1.3775,-1.3769,-1.3773,-1.3814,-1.3821,-1.3796,-1.3869,-1.3843,-1.3848,-1.3864,-1.3872,-1.3878,-1.3877,-1.3769,0,0,0,0,0,-1.3684,-1.3709,-1.3717,-1.3758,-1.3765,-1.3766,-1.378,-1.3775,-1.3789,-1.3795,-1.3803,-1.3817,-1.3841,-1.3856,-1.3879,-1.3928,-1.3931,-1.395,-1.3957,-1.3962,-1.3967,-1.3993,-1.4002,-1.3908,-1.3908,-1.3908,0,0,-1.371,-1.3719,-1.3736,-1.3764,-1.3774,-1.3801,-1.3771,-1.38,-1.382,-1.38,-1.3838,-1.3843,-1.3859,-1.3903,-1.3923,-1.391,-1.3994,-1.3967,-1.3971,-1.3974,-1.3998,-1.4007,-1.4015,-1.3911,-1.391,-1.391,0,0,-1.3771,-1.378,-1.3815,-1.3825,-1.3841,-1.3841,-1.3849,-1.3861,-1.3864,-1.3902,-1.3887,-1.391,-1.3951,-1.3962,-1.3974,-1.4037,-1.4025,-1.4044,-1.4079,-1.4104,-1.4112,-1.4118,-1.4141,-1.4149,-1.4049,-1.4049,-1.4049,0,-1.3802,-1.3841,-1.3834,-1.3864,-1.3877,-1.3859,-1.3894,-1.3904,-1.3926,-1.3935,-1.392,-1.397,-1.398,-1.4026,-1.4041,-1.4051,-1.406,-1.4043,-1.4111,-1.4118,-1.4124,-1.4145,-1.4154,-1.4052,-1.4051,-1.4051,-1.4051,0,-1.3878,-1.3905,-1.3931,-1.3952,-1.3967,-1.4,-1.3998,-1.4014,-1.4007,-1.4009,-1.4047,-1.4057,-1.4081,-1.4091,-1.4085,-1.4137,-1.4128,-1.4112,-1.4085,-1.4135,-1.4155,-1.4164,-1.4055,-1.4054,-1.4053,-1.4053,0,0,-1.3962,-1.3978,-1.3987,-1.3996,-1.4011,-1.4032,-1.4063,-1.4085,-1.41,-1.4115,-1.4141,-1.4175,-1.416,-1.4172,-1.4167,-1.4189,-1.4239,-1.4171,-1.4171,-1.4183,-1.4296,-1.4308,-1.4318,-1.423,-1.4232,-1.4233,-1.4295,0,-1.4024,-1.4078,-1.4072,-1.4124,-1.4148,-1.4131,-1.4157,-1.4169,-1.4171,-1.4192,-1.4194,-1.4218,-1.4197,-1.4204,-1.4225,-1.4228,-1.4262,-1.4224,-1.4255,-1.4256,-1.4252,-1.4329,-1.4343,-1.44,-1.4303,-1.4304,-1.4305,0,-1.4105,-1.4122,-1.4176,-1.4186,-1.4196,-1.422,-1.424,-1.426,-1.4273,-1.4272,-1.4286,-1.4276,-1.4307,-1.4278,-1.432,-1.4295,-1.4307,-1.431,-1.4312,-1.4316,-1.4284,-1.4335,-1.4419,-1.4428,-1.4317,-1.4316,-1.4315,0,-1.4161,-1.4198,-1.4235,-1.4243,-1.4256,-1.4273,-1.4279,-1.429,-1.4303,-1.432,-1.4329,-1.4349,-1.436,-1.4376,-1.4372,-1.4352,-1.4415,-1.4386,-1.4416,-1.4416,-1.4431,-1.4431,-1.4519,-1.4438,-1.4438,-1.4437,-1.4437,0,-1.4232,-1.4266,-1.426,-1.4283,-1.432,-1.4312,-1.4349,-1.4353,-1.4362,-1.4385,-1.437,-1.4392,-1.4385,-1.4407,-1.4404,-1.4439,-1.4444,-1.4444,-1.4444,-1.4446,-1.4446,-1.4455,-1.4451,-1.444,-1.4439,-1.4439,-1.4438,0,-1.4303,-1.43,-1.4339,-1.4347,-1.435,-1.4377,-1.4383,-1.4405,-1.4404,-1.4434,-1.444,-1.444,-1.4464,-1.4461,-1.4488,-1.4486,-1.453,-1.4524,-1.4526,-1.4525,-1.4555,-1.4552,-1.4652,-1.4665,-1.4575,-1.4576,-1.4577,0,-1.4349,-1.4374,-1.4384,-1.4398,-1.4405,-1.4428,-1.4442,-1.4434,-1.4449,-1.4464,-1.4483,-1.4506,-1.4524,-1.4563,-1.4566,-1.4586,-1.4581,-1.4614,-1.4584,-1.4586,-1.4582,-1.4581,-1.4583,-1.4621,-1.4622,-1.4622,-1.4623,0,-1.4431,-1.4428,-1.4447,-1.4467,-1.4483,-1.4498,-1.4511,-1.4523,-1.4517,-1.4534,-1.4558,-1.4572,-1.4599,-1.4621,-1.464,-1.4646,-1.4634,-1.4632,-1.464,-1.4644,-1.4645,-1.4645,-1.4543,-1.4631,-1.463,-1.4629,-1.4629,-1.4629,-1.4491,-1.4512,-1.4522,-1.4545,-1.4553,-1.4566,-1.4586,-1.4588,-1.4608,-1.4629,-1.4623,-1.465,-1.4661,-1.4685,-1.4693,-1.4714,-1.4701,-1.4713,-1.4716,-1.4719,-1.4723,-1.464,-1.4717,-1.4717,-1.4716,-1.4716,-1.4716,0,-1.4572,-1.4577,-1.4598,-1.4616,-1.4634,-1.4619,-1.4633,-1.4648,-1.4673,-1.4683,-1.4701,-1.4728,-1.4749,-1.4753,-1.4773,-1.4789,-1.4784,-1.4795,-1.4794,-1.4795,-1.4733,-1.4724,-1.4799,-1.4799,-1.4798,-1.4798,-1.4798,-1.4798,-1.4617,-1.4652,-1.465,-1.469,-1.4694,-1.4721,-1.473,-1.4741,-1.4749,-1.478,-1.4798,-1.48,-1.4807,-1.4828,-1.4846,-1.4847,-1.4855,-1.4868,-1.4867,-1.4808,-1.48,-1.4792,-1.4784,-1.487,-1.487,-1.4928,-1.4928,-1.4929]},{"header":{"parameterUnit":"m.s-1","parameterCategory":1,"la1":30.2991,"la2":30.254,"lo1":-89.0895,"lo2":-89.0444,"dy":0.0017,"dx":0.0017,"nx":28,"ny":28,"refTime":"2025-12-14T09:00:00:Z","depth":0,"parameterNumber":3,"parameterNumberName":"V-component_of_WINDS"},"data":[0,0,0,0,0,0,0,0,0,0,0,0,0,0,0,0,0,0,0,0,0,0,0,0,0,0,0,0,0,0,0,0,0,0,0,0,0,0,0,0,0,0,0,0,0,0,0,0,0,0,0,0,0,0,0,0,0,0,-9.063,-9.0631,0,-9.0737,-9.0738,-9.0739,-9.0662,-9.0658,-9.0655,-9.0652,-9.0753,-9.0759,-9.0765,0,0,0,0,0,0,0,0,0,0,0,0,0,-9.0354,-9.0359,-9.063,-9.0631,-9.0633,-9.0736,-9.0738,-9.0739,-9.0662,-9.0658,-9.0654,-9.065,-9.0751,-9.0758,-9.0765,0,0,0,0,0,0,0,0,0,0,0,0,0,-9.0468,-9.0361,-9.063,-9.0607,-9.0606,-9.0736,-9.0738,-9.074,-9.0663,-9.0658,-9.0653,-9.0648,-9.0749,-9.0758,-9.0766,-9.0923,0,0,-9.0793,-9.0797,0,0,0,0,0,0,0,0,-9.0462,-9.0478,-9.0609,-9.0609,-9.0608,-9.0681,-9.0678,-9.0801,-9.0664,-9.0641,-9.0651,-9.0646,-9.0733,-9.0743,-9.0774,-9.0927,-9.0932,-9.0794,-9.0799,-9.0803,-9.0806,0,0,0,0,0,0,0,-9.0454,-9.0473,-9.0672,-9.0611,-9.061,-9.0589,-9.06,-9.0701,-9.0714,-9.0643,-9.0637,-9.0652,-9.0731,-9.0765,-9.0775,-9.0933,-9.0794,-9.0802,-9.0807,-9.0811,-9.1221,-9.1227,0,0,0,0,0,0,-9.0449,-9.0467,-9.0668,-9.0675,-9.0521,-9.0598,-9.061,-9.0662,-9.0713,-9.0716,-9.0656,-9.0648,-9.0753,-9.0765,-9.0779,-9.0966,-9.0803,-9.0811,-9.0816,-9.1216,-9.1222,-9.1229,0,0,0,0,0,0,-9.0444,-9.0468,-9.0664,-9.057,-9.0593,-9.0609,-9.0668,-9.0667,-9.0701,-9.0723,-9.0724,-9.0688,-9.0749,-9.0766,-9.0888,-9.0968,-9.0815,-9.0823,-9.1209,-9.1218,-9.1226,-9.1341,0,0,0,0,0,0,-9.0436,-9.0466,-9.0527,-9.0572,-9.0599,-9.0774,-9.0673,-9.0673,-9.0717,-9.0707,-9.0753,-9.0756,-9.0747,-9.0875,-9.0897,-9.0978,-9.083,-9.1202,-9.1213,-9.1223,-9.133,-9.1352,-9.1371,0,0,0,0,0,-9.0426,-9.0553,-9.0531,-9.0555,-9.0676,-9.0779,-9.0794,-9.0782,-9.0724,-9.0784,-9.0799,-9.0755,-9.0956,-9.0889,-9.0912,-9.0997,-9.1197,-9.121,-9.1222,-9.1321,-9.1348,-9.1371,0,0,0,0,0,0,-9.0514,-9.0559,-9.0534,-9.068,-9.0727,-9.0766,-9.0842,-9.0811,-9.0873,-9.0861,-9.0842,-9.0853,-9.0982,-9.1001,-9.0925,-9.1151,-9.1067,-9.1085,-9.1134,-9.116,-9.118,-9.1173,-9.0838,0,0,0,0,0,-9.0552,-9.0634,-9.0667,-9.0793,-9.0818,-9.0826,-9.087,-9.0858,-9.0904,-9.0923,-9.0946,-9.0991,-9.1064,-9.1113,-9.1181,-9.1332,-9.1341,-9.1402,-9.1423,-9.1439,-9.1455,-9.1537,-9.1565,-9.127,-9.127,-9.127,0,0,-9.0627,-9.0662,-9.0715,-9.0811,-9.0846,-9.093,-9.0843,-9.0935,-9.0997,-9.0936,-9.1054,-9.1072,-9.1121,-9.1259,-9.132,-9.1279,-9.1539,-9.1456,-9.1469,-9.1476,-9.1553,-9.1581,-9.1606,-9.1279,-9.1277,-9.1276,0,0,-9.081,-9.0844,-9.0953,-9.0991,-9.1046,-9.1051,-9.1077,-9.1122,-9.1133,-9.1251,-9.1207,-9.1279,-9.1406,-9.1443,-9.1478,-9.1677,-9.1639,-9.17,-9.1807,-9.1888,-9.1911,-9.1931,-9.2003,-9.2028,-9.1715,-9.1715,-9.1716,0,-9.0897,-9.1025,-9.1012,-9.111,-9.1153,-9.1105,-9.1215,-9.125,-9.1324,-9.1354,-9.1307,-9.1467,-9.1496,-9.1642,-9.1691,-9.1721,-9.175,-9.1694,-9.1909,-9.1929,-9.1948,-9.2016,-9.2043,-9.1722,-9.1722,-9.1721,-9.172,0,-9.1129,-9.1218,-9.1299,-9.1376,-9.1428,-9.1531,-9.1533,-9.1587,-9.157,-9.158,-9.1701,-9.1735,-9.181,-9.1843,-9.1826,-9.1988,-9.196,-9.1912,-9.1827,-9.1984,-9.2047,-9.2073,-9.1733,-9.173,-9.1728,-9.1726,0,0,-9.1369,-9.1439,-9.1469,-9.1504,-9.1561,-9.1629,-9.1729,-9.1806,-9.1853,-9.1905,-9.1988,-9.2098,-9.2054,-9.2094,-9.2081,-9.2151,-9.2307,-9.2094,-9.2094,-9.2133,-9.2488,-9.2525,-9.2555,-9.2283,-9.2287,-9.2291,-9.2484,0,-9.1555,-9.1733,-9.1726,-9.1891,-9.1973,-9.1929,-9.2016,-9.2061,-9.2072,-9.2142,-9.2153,-9.2232,-9.2168,-9.2192,-9.226,-9.2274,-9.2378,-9.226,-9.2358,-9.2362,-9.2349,-9.2588,-9.2627,-9.2807,-9.2508,-9.2512,-9.2516,0,-9.1795,-9.186,-9.2035,-9.2082,-9.2116,-9.2195,-9.2266,-9.2333,-9.2382,-9.2385,-9.2432,-9.2408,-9.2508,-9.2421,-9.2558,-9.2478,-9.2517,-9.253,-9.2537,-9.2546,-9.2449,-9.2604,-9.2864,-9.2891,-9.2554,-9.2551,-9.2548,0,-9.1954,-9.2084,-9.2206,-9.2236,-9.2294,-9.2351,-9.2377,-9.2421,-9.2469,-9.2529,-9.2559,-9.2629,-9.2668,-9.2722,-9.2717,-9.2654,-9.2857,-9.2769,-9.2861,-9.2862,-9.2906,-9.2903,-9.3177,-9.2931,-9.2931,-9.293,-9.293,0,-9.2163,-9.2271,-9.2278,-9.2353,-9.2474,-9.2464,-9.2582,-9.2602,-9.2642,-9.2719,-9.2683,-9.2756,-9.2745,-9.2816,-9.2813,-9.2927,-9.2944,-9.2949,-9.2947,-9.2953,-9.2952,-9.2979,-9.2966,-9.2937,-9.2936,-9.2934,-9.2933,0,-9.236,-9.2369,-9.2499,-9.2545,-9.2559,-9.2646,-9.2683,-9.2754,-9.2763,-9.2861,-9.2883,-9.2897,-9.298,-9.2981,-9.3074,-9.3072,-9.3212,-9.3195,-9.3197,-9.3194,-9.3287,-9.3278,-9.3587,-9.3627,-9.3355,-9.3358,-9.336,0,-9.2493,-9.2576,-9.2632,-9.2683,-9.2714,-9.2795,-9.2844,-9.2837,-9.2888,-9.2952,-9.3014,-9.3095,-9.3159,-9.3293,-9.331,-9.3382,-9.3367,-9.347,-9.3377,-9.3381,-9.3369,-9.3365,-9.3373,-9.3488,-9.3491,-9.3494,-9.3496,0,-9.2728,-9.2729,-9.2803,-9.2879,-9.2939,-9.2997,-9.3051,-9.3093,-9.3092,-9.3152,-9.3239,-9.3289,-9.3387,-9.3467,-9.3537,-9.3561,-9.3529,-9.3525,-9.355,-9.3557,-9.3555,-9.3559,-9.3247,-9.3518,-9.3516,-9.3514,-9.3513,-9.3512,-9.2898,-9.2971,-9.3022,-9.3105,-9.3146,-9.3198,-9.3267,-9.3286,-9.3359,-9.344,-9.3431,-9.3527,-9.3574,-9.3665,-9.3695,-9.3769,-9.3733,-9.3769,-9.3778,-9.3788,-9.3799,-9.3544,-9.3781,-9.3781,-9.378,-9.378,-9.3779,0,-9.3132,-9.3164,-9.3241,-9.3319,-9.3385,-9.3351,-9.3409,-9.3466,-9.3552,-9.3599,-9.3664,-9.3764,-9.3842,-9.3866,-9.3941,-9.3995,-9.3982,-9.4015,-9.4011,-9.4018,-9.3826,-9.3797,-9.4025,-9.4025,-9.4025,-9.4025,-9.4024,-9.4024,-9.3262,-9.3384,-9.3391,-9.3532,-9.3562,-9.3659,-9.3695,-9.3742,-9.378,-9.3894,-9.396,-9.3976,-9.4015,-9.4092,-9.4162,-9.4167,-9.4196,-9.4236,-9.4234,-9.4055,-9.4031,-9.4007,-9.398,-9.4242,-9.4242,-9.4419,-9.4421,-9.4422]}]]